Weather History for KPBG - December, 2013

Change the Weather History Date:

Saturday, December 7, 2013

  Actual Average Record
Temperature  
Mean Temperature 28 °F 28 °F  
Max Temperature 34 °F 36 °F 55 °F (1951)
Min Temperature 22 °F 20 °F -1 °F (1964)
Degree Days  
Heating Degree Days 37 37  
Month to date heating degree days 217 251  
Since 1 July heating degree days 1922 1885  
Cooling Degree Days 0 0  
Month to date cooling degree days 0  
Year to date cooling degree days 346  
Moisture  
Dew Point 13 °F    
Average Humidity 58    
Maximum Humidity 77    
Minimum Humidity 39    
Precipitation  
Precipitation 0.00 in - 0.80 in (1959)
Month to date precipitation 0.14  
Year to date precipitation 30.72  
Sea Level Pressure  
Sea Level Pressure 30.32 in    
Wind  
Wind Speed 7 mph (NW)    
Max Wind Speed 17 mph    
Max Gust Speed 24 mph    
Visibility 10 miles    
Events      
T = Trace of Precipitation, MM = Missing Value Source: NWS Daily Summary

Daily Weather History Graph

Daily Weather History Graph

Search for Another Location

Airport or City:

Trip Planner

Search our weather history database for the weather conditions in past years. The results will help you decide how hot, cold, wet, or windy it might be!

Date:

Astronomy

Dec. 07, 2013 Rise Set
Actual Time 7:17 AM EST 4:13 PM EST
Civil Twilight 6:44 AM EST 4:46 PM EST
Nautical Twilight 6:07 AM EST 5:23 PM EST
Astronomical Twilight 5:31 AM EST 5:58 PM EST
Moon 10:52 AM EST (12/7) 10:01 PM EST (12/7)
Length of Visible Light 10h 02m
Length of Day
8h 56m
Waxing Crescent, 29% of the Moon is Illuminated
Dec 7
Waxing Crescent
Dec 9
First Quarter
Dec 17
Full
Dec 25
Last Quarter
Jan 1
New

Hourly Weather History & Observations

Time (EST) Temp. Windchill Dew Point Humidity Pressure Visibility Wind Dir Wind Speed Gust Speed Precip Events Conditions
12:53 AM 32.0 °F 26.4 °F 23.0 °F 69% 30.15 in 10.0 mi North 5.8 mph - N/A   Overcast
1:53 AM 32.0 °F 26.4 °F 21.9 °F 66% 30.14 in 10.0 mi NNE 5.8 mph - N/A   Overcast
2:53 AM 32.0 °F 24.2 °F 17.1 °F 54% 30.17 in 10.0 mi WNW 9.2 mph - N/A   Overcast
3:53 AM 30.0 °F 22.4 °F 16.0 °F 56% 30.19 in 10.0 mi NNW 8.1 mph - N/A   Mostly Cloudy
4:53 AM 28.9 °F 21.9 °F 14.0 °F 54% 30.22 in 10.0 mi NW 6.9 mph - N/A   Overcast
5:53 AM 28.9 °F 18.6 °F 12.9 °F 51% 30.24 in 10.0 mi NW 12.7 mph - N/A   Overcast
6:53 AM 28.0 °F 20.8 °F 12.0 °F 51% 30.27 in 10.0 mi WNW 6.9 mph - N/A   Overcast
7:53 AM 28.0 °F 20.0 °F 12.0 °F 51% 30.29 in 10.0 mi NW 8.1 mph - N/A   Overcast
8:53 AM 28.0 °F 21.7 °F 10.0 °F 47% 30.31 in 10.0 mi NW 5.8 mph - N/A   Overcast
9:53 AM 28.0 °F 20.0 °F 10.0 °F 47% 30.32 in 10.0 mi NW 8.1 mph - N/A   Partly Cloudy
10:53 AM 30.0 °F 19.5 °F 10.0 °F 43% 30.32 in 10.0 mi WNW 13.8 mph 18.4 mph N/A   Mostly Cloudy
11:53 AM 30.9 °F 21.7 °F 9.0 °F 40% 30.31 in 10.0 mi NW 11.5 mph 20.7 mph N/A   Mostly Cloudy
12:53 PM 30.9 °F 21.2 °F 10.0 °F 42% 30.32 in 10.0 mi NW 12.7 mph 23.0 mph N/A   Mostly Cloudy
1:53 PM 30.0 °F 21.1 °F 9.0 °F 41% 30.32 in 10.0 mi NW 10.4 mph 17.3 mph N/A   Mostly Cloudy
2:53 PM 30.0 °F 21.7 °F 9.0 °F 41% 30.33 in 10.0 mi NW 9.2 mph - N/A   Mostly Cloudy
3:53 PM 28.9 °F 21.9 °F 10.0 °F 45% 30.35 in 10.0 mi NW 6.9 mph - N/A   Mostly Cloudy
4:53 PM 28.0 °F 24.2 °F 12.0 °F 51% 30.37 in 10.0 mi NW 3.5 mph - N/A   Mostly Cloudy
5:53 PM 27.0 °F 19.5 °F 12.0 °F 53% 30.39 in 10.0 mi North 6.9 mph - N/A   Overcast
6:53 PM 25.0 °F 18.1 °F 14.0 °F 63% 30.41 in 10.0 mi NNW 5.8 mph - N/A   Mostly Cloudy
7:53 PM 24.1 °F 16.0 °F 12.9 °F 62% 30.43 in 10.0 mi NNW 6.9 mph - N/A   Mostly Cloudy
8:53 PM 23.0 °F - 12.9 °F 65% 30.44 in 10.0 mi Calm Calm - N/A   Partly Cloudy
9:53 PM 21.9 °F - 15.1 °F 75% 30.45 in 10.0 mi Calm Calm - N/A   Overcast
10:53 PM 24.1 °F 19.7 °F 10.9 °F 57% 30.48 in 10.0 mi NW 3.5 mph - N/A   Overcast
11:53 PM 24.1 °F - 12.0 °F 60% 30.49 in 10.0 mi Calm Calm - N/A   Overcast